Location: *
(50.2500°N, 8.3333°E)
Time: 15:46:11
(UTC+00:00)

Daily predictions for brighter satellites

Satellite Brightness Start Highest point End
(mag) Time Altitude Azimuth Time Altitude Azimuth Time Altitude Azimuth
Cosmos 1515 Rocket 3.9 15:55:37 10° SSW 15:59:56 71° W 16:04:17 10° N
Cosmos 494 Rocket 4.4 15:56:27 10° S 16:01:28 47° ESE 16:06:31 10° NNE
Cosmos 44 Rocket 3.5 16:00:40 10° NW 16:05:23 73° SW 16:10:04 10° SSE
Cosmos 1782 3.1 16:03:47 10° SSE 16:07:38 47° E 16:11:29 10° NNE
Cosmos 1151 Rocket 4.4 16:05:29 10° SW 16:09:37 40° WNW 16:13:46 10° N
Cosmos 1315 Rocket 3.4 16:07:35 10° SSE 16:11:16 38° E 16:15:01 10° NNE
STARLINK-67 3.9 16:09:06 10° SSW 16:11:34 30° SSE 16:14:04 10° E
NOSS 2-2 (E) 3.8 16:08:33 10° WSW 16:12:14 58° NW 16:16:41 10° NE
Meteor 1-28 Rocket 4.2 16:09:15 10° N 16:12:53 48° WNW 16:16:31 10° SSW
Cosmos 1346 Rocket 2.8 16:10:11 10° N 16:14:06 60° ENE 16:18:02 10° SSE
ATLAS 2AS CENTAUR R/B 3.2 16:06:15 10° SSW 16:14:12 73° SE 16:22:10 10° NE
YAOGAN 6 4.3 16:12:40 10° E 16:14:30 14° ENE 16:16:22 10° NNE
CZ-4B R/B 3.5 16:09:19 10° S 16:14:36 71° WSW 16:20:01 10° NNW
IRS-1C Rocket 4.2 16:10:38 10° SE 16:15:48 58° ENE 16:20:59 10° N
Cosmos 1048 Rocket 4.2 16:11:09 10° SSW 16:16:32 81° WNW 16:21:57 10° NNE
Cosmos 2322 4.0 16:11:31 10° S 16:17:02 53° ESE 16:22:35 10° NE
COSMO-SKYMED 1 4.4 16:16:41 10° ENE 16:18:37 13° E 16:20:35 10° ESE
Cosmos 1302 Rocket 4.0 16:14:53 10° NNW 16:20:09 64° ENE 16:25:22 10° SE
Cosmos 1400 Rocket 3.3 16:19:14 10° SSW 16:23:18 65° WNW 16:27:22 10° N
Cosmos 1606 3.8 16:22:06 10° SSW 16:25:43 44° WNW 16:29:24 10° N
Cosmos 2278 Rocket 2.6 16:20:24 10° NNW 16:25:48 42° NE 16:31:09 10° ESE
SMAP 3.0 16:26:05 10° SSE 16:30:42 65° ENE 16:35:21 10° N
YAOGAN 1 3.9 16:29:05 10° ESE 16:32:02 18° ENE 16:35:00 10° NNE
Cosmos 1666 4.2 16:30:33 10° NNE 16:32:54 16° ENE 16:35:13 10° ESE
Meteor 1-11 Rocket 4.0 16:29:33 10° N 16:35:21 49° ENE 16:41:07 10° SE
Cosmos 2360 Rocket 2.4 16:30:05 10° SW 16:35:45 75° WNW 16:41:28 10° NNE
SeaSat 1 4.0 16:34:21 14° ENE 16:36:07 16° NE 16:39:06 10° N
ALOS 4.0 16:33:22 10° SSW 16:37:39 36° W 16:41:59 10° NNW
RESURS DK-1 3.4 16:36:41 10° S 16:40:13 28° ESE 16:42:29 17° ENE
Cosmos 2369 Rocket 4.0 16:38:12 10° N 16:40:37 13° NNE 16:42:04 12° NE
Cosmos 304 Rocket 3.7 16:36:52 10° NNW 16:41:43 88° ENE 16:46:32 10° SSE
Cosmos 1980 Rocket 4.3 16:39:06 10° WNW 16:42:59 18° NNW 16:46:52 10° N
Cosmos 2333 Rocket 2.5 16:37:32 10° S 16:43:04 51° ESE 16:48:13 12° NE
Radarsat 4.5 16:38:29 10° SSE 16:43:41 76° ENE 16:48:54 10° NNW
Meteor 1-27 Rocket 4.3 16:40:00 10° SSE 16:45:10 37° E 16:50:28 10° NNE
Cosmos 1733 Rocket 3.1 16:40:58 10° N 16:45:16 54° ENE 16:49:33 10° SSE
USA 215 3.4 16:41:19 14° ENE 16:47:04 74° NNW 16:53:35 10° WSW
Cosmos 2180 Rocket 4.5 16:41:54 10° N 16:48:11 79° E 16:54:30 10° SSE
CENTAUR R/B 4.1 16:41:13 10° NW 16:48:56 53° WSW 16:57:16 10° SSE
ERBS 3.5 16:46:30 10° WNW 16:49:41 43° SW 16:52:53 10° SSE
NOSS 2 (A) 3.9 16:48:53 10° NW 16:51:27 88° NE 16:53:26 13° SE
Envisat 3.0 16:48:03 10° SSE 16:53:01 57° ENE 16:58:01 10° N
Cosmos 2237 Rocket 3.2 16:50:54 10° SSE 16:55:33 27° ESE 16:57:53 20° ENE
Feng Yun 1-1 Rocket 4.4 16:51:47 10° S 16:57:11 75° WSW 17:02:36 10° NNW
PSLV R/B 4.2 16:54:30 10° N 16:58:41 72° WNW 17:02:48 10° SSW
Cosmos 2322 Rocket 3.6 16:54:53 10° WSW 16:59:54 32° NW 17:04:58 10° NNE
Cosmos 1812 3.0 16:56:17 10° SSE 16:59:58 44° E 17:02:32 18° NNE
Exosat Rocket 3.9 16:55:48 10° S 17:00:51 42° ESE 17:03:51 20° NE
SL-16 R/B 3.8 17:00:31 10° WSW 17:05:21 28° NW 17:10:12 10° NNE
Cosmos 1992 Rocket 3.9 17:02:02 10° NNW 17:07:15 63° ENE 17:12:25 10° SE
SKYMED 2 4.2 17:05:22 24° NE 17:07:15 35° E 17:11:14 10° SSE
Cosmos 1536 2.9 17:04:13 10° N 17:08:11 51° ENE 17:12:06 10° SSE
Cosmos 1092 Rocket 4.4 17:02:36 10° SSE 17:08:23 39° E 17:14:09 10° NNE
Okean O Rocket 4.3 17:06:24 10° SW 17:09:45 21° W 17:13:07 10° NW
CZ-4 R/B 1.6 17:06:53 10° SE 17:10:37 43° ENE 17:14:18 10° N
Cosmos 2219 Rocket 2.1 17:08:26 10° SSW 17:14:02 82° ESE 17:18:26 17° NNE
Cosmos 2242 Rocket 4.0 17:10:37 10° SSE 17:14:55 43° E 17:17:13 24° NE
NOSS 0 Rocket 4.2 17:11:44 10° S 17:17:39 49° ESE 17:21:06 24° NE
Okean-O 2.8 17:15:43 10° S 17:20:08 75° WSW 17:24:36 10° NNW
NOAA 12 4.3 17:16:49 10° S 17:22:07 73° WSW 17:27:26 10° NNW
Cosmos 1862 Rocket 3.4 17:18:31 10° S 17:22:51 77° E 17:26:30 15° NNE
Cosmos 1500 3.4 17:20:10 10° NNW 17:23:57 68° W 17:27:40 10° S
Cosmos 2297 4.1 17:19:29 10° NNW 17:24:53 40° NE 17:26:43 32° E
Cosmos 921 Rocket 4.4 17:21:33 10° N 17:23:41 22° NNE 17:23:41 22° NNE
Cosmos 1980 4.0 17:20:01 10° S 17:25:20 46° ESE 17:27:28 32° ENE
NOSS 7 (D) 4.4 17:22:43 10° NW 17:25:06 48° N 17:25:06 48° N
Lacrosse 5 rocket 1.9 17:22:22 10° SSW 17:26:20 39° SE 17:26:52 37° ESE
BREEZE-M DEB (TANK) 3.0 17:21:06 10° W 17:26:21 46° SSW 17:27:30 28° SSE
NOSS 3-4 (A) 3.7 17:21:14 10° SW 17:27:16 67° NW 17:31:32 22° NE
NOSS 3-4 (C) 3.7 17:21:20 10° SW 17:27:24 68° NW 17:31:38 22° NE
ATLAS 3B R/B 4.3 17:21:42 10° NW 17:27:41 36° WSW 17:33:49 10° S
H-2A R/B 4.5 17:25:12 10° SSW 17:28:35 33° W 17:31:59 10° NNW
ISS -3.3 17:26:04 10° WNW 17:29:24 57° SSW 17:30:13 42° SSE
CZ-4 R/B 4.3 17:27:09 10° SSE 17:31:19 78° ENE 17:35:30 10° NNW
Cosmos 1943 Rocket 3.5 17:30:49 10° NNW 17:34:39 23° NNE 17:34:39 23° NNE
COSMOS 2428 2.8 17:29:50 10° SW 17:35:30 75° WNW 17:39:28 21° NNE
COBE Rocket 4.4 17:31:26 10° N 17:35:59 55° WNW 17:40:31 10° SSW
Ariane Rocket 3.9 17:37:35 30° NNE 17:37:35 30° NNE 17:40:48 10° N
SL-4 R/B 1.9 17:32:40 10° WSW 17:36:27 65° SSE 17:36:58 58° ESE
COSMOS 2455 4.4 17:31:39 10° W 17:36:45 28° NNW 17:40:50 14° NNE
CSL-04 Rocket 3.5 17:34:19 10° SSE 17:39:33 71° ENE 17:44:51 10° NNW
Cosmos 1900 4.2 17:40:31 10° NW 17:45:27 85° SW 17:48:10 27° SSE
STARLINK-67 4.1 17:43:03 10° W 17:44:53 35° W 17:44:53 35° W
FengYun 1-2 T 4.4 17:41:41 10° S 17:47:09 72° WSW 17:52:40 10° NNW
YAOGAN 6 3.1 17:44:06 10° S 17:47:34 59° W 17:51:07 10° NNW
Nadezhda 4 Rocket 4.2 17:43:38 10° SSW 17:49:59 76° WNW 17:56:20 10° N
CSL-04 Debris 4.1 17:45:03 10° SSE 17:50:31 86° ENE 17:56:00 10° NNW
Cosmos 1553 Rocket 4.2 17:44:33 10° N 17:50:40 47° ENE 17:52:39 36° ESE
Cosmos 1908 Rocket 3.7 17:50:56 10° NNW 17:55:22 74° W 17:59:44 10° S
COSMO-SKYMED 1 2.5 17:53:53 41° N 17:55:23 82° WNW 17:59:44 10° SSW
Cosmos 1428 Rocket 4.5 17:51:12 10° SSE 17:57:11 55° E 17:59:07 40° NE
IRS-1A Rocket 4.4 18:00:47 53° ENE 18:00:50 53° ENE 18:06:34 10° N
Cosmos 2344 4.4 17:56:55 10° NW 18:05:21 48° NNE 18:08:48 38° ENE
ATLAS 2AS CENTAUR R/B 3.8 17:58:06 10° WSW 18:05:48 46° NNW 18:10:07 25° NNE
Cosmos 2251 Rocket 3.7 18:01:41 10° SSW 18:06:59 69° WNW 18:09:05 37° N
YAOGAN 1 2.9 18:03:25 10° S 18:07:42 64° WSW 18:12:02 10° NNW
Cosmos 1666 3.4 18:05:10 10° NNW 18:08:49 50° W 18:12:25 10° S
NOAA 11 4.1 18:03:25 10° SSE 18:08:52 89° WSW 18:14:24 10° NNW
Cosmos 2278 Rocket 3.4 18:04:37 10° NW 18:09:54 41° WSW 18:15:08 10° S
BREEZE-M R/B 3.5 18:06:31 10° W 18:10:05 47° W 18:10:05 47° W
SeaSat 1 3.0 18:14:08 44° N 18:14:08 44° N 18:17:41 10° NNW
Cosmos 2026 Rocket 3.7 18:06:48 10° S 18:12:50 79° E 18:15:46 33° NNE
USA 116 4.4 18:11:45 43° NNE 18:13:36 86° WNW 18:18:52 10° SSW
RESURS DK-1 3.5 18:14:18 10° WSW 18:18:09 37° NW 18:18:24 37° NW
Cosmos 2360 Rocket 4.3 18:16:37 10° W 18:20:45 20° NW 18:23:58 13° N
Cosmos 1417 Rocket 4.3 18:15:12 10° N 18:21:09 71° ENE 18:21:09 71° ENE
SL-16 R/B 3.5 18:20:12 10° S 18:22:46 26° S 18:22:46 26° S
Cosmos 2369 Rocket 3.6 18:21:10 10° NNW 18:23:52 25° N 18:23:52 25° N
Cosmos 2333 Rocket 3.5 18:22:17 10° WSW 18:27:34 36° NW 18:30:14 24° N
USA 215 3.6 18:28:40 46° NNE 18:29:42 50° N 18:35:58 10° WNW
Cosmos 1867 4.3 18:26:50 10° NW 18:30:44 44° NNW 18:30:44 44° NNW
Cosmos 2237 Rocket 2.5 18:33:35 10° SW 18:39:14 61° NW 18:39:45 59° NNW
CZ-4 R/B 3.9 18:42:57 10° SW 18:45:51 20° W 18:48:44 10° NW
Cosmos 2219 Rocket 4.0 18:54:07 10° W 18:58:41 25° NW 19:00:10 22° NNW
Lacrosse 5 rocket 4.0 19:01:22 10° WSW 19:02:32 18° W 19:02:32 18° W
NOSS 3-1 (C) 4.4 19:01:06 10° NW 19:06:33 50° N 19:06:33 50° N
USA 229 DEB 4.4 19:07:35 10° NW 19:12:39 47° NNW 19:12:39 47° NNW
USA 229 4.4 19:07:41 10° NW 19:12:44 46° NNW 19:12:44 46° NNW
Cosmos 1943 Rocket 4.0 19:14:08 10° NNW 19:16:11 23° NNW 19:16:11 23° NNW
ATLAS 2AS CENTAUR R/B 4.4 19:51:49 10° WNW 19:57:34 29° NNW 19:57:34 29° NNW
